Theta_e
310 310 310 310 310 310 309 309 309 309 309 309 309 309 309 310 310 317 319 315 315 314 316 317 316 317 318 321 319 320 320 320 320 320 319 317 317 318 318 317 316 316 317 318 318
311 311 311 310 310 310 310 309 309 309 310 310 310 309 307 308 311 317 317 315 311 312 316 317 318 318 318 321 321 320 322 321 319 317 317 316 315 315 316 315 315 315 316 318 318
314 313 313 313 313 313 313 313 313 313 312 313 313 312 309 307 320 316 314 312 310 312 317 317 318 318 319 320 321 321 321 319 318 318 318 317 315 315 315 315 315 314 314 314 317
315 315 315 314 314 315 315 316 316 316 315 315 314 314 311 312 316 313 315 313 311 313 316 316 317 318 319 319 319 319 319 319 319 318 318 317 316 316 315 315 315 314 314 314 314
315 315 315 315 316 316 317 318 318 317 315 314 314 314 312 317 315 315 311 312 312 315 315 317 317 317 318 318 317 317 318 318 317 316 316 317 317 316 316 314 314 314 314 314 313
315 315 316 316 317 318 319 320 320 319 318 317 314 313 316 317 313 319 318 312 315 315 315 316 316 316 317 316 316 316 316 316 315 315 315 315 315 316 314 313 313 313 313 312 312
316 316 317 318 319 320 320 321 320 320 318 316 313 312 316 315 314 317 314 317 315 315 316 316 316 317 317 317 314 315 315 314 314 314 314 315 314 314 313 313 313 313 312 311 312
317 318 319 319 321 322 323 322 321 318 314 311 310 316 316 311 311 311 314 313 314 315 314 314 315 315 316 316 316 315 314 315 316 316 314 314 314 314 313 312 312 311 310 311 311
318 319 319 322 323 323 323 322 319 312 312 310 316 319 315 309 312 310 312 312 313 313 312 312 314 315 315 315 315 314 314 315 316 316 315 314 315 314 313 312 312 312 311 311 311
319 319 320 323 323 323 323 321 315 313 317 316 315 314 311 313 311 310 310 312 313 313 313 314 314 314 314 313 315 316 316 316 316 316 314 314 313 313 313 313 313 313 311 311 309
320 320 322 323 322 323 322 320 320 320 315 322 323 322 323 310 309 311 310 311 313 314 315 314 314 314 315 315 315 315 314 315 315 315 314 314 315 314 313 313 313 312 311 311 308
322 322 323 323 323 322 321 323 315 314 321 321 322 322 318 312 315 311 310 312 313 315 314 314 315 315 315 315 315 314 314 314 314 315 314 313 314 313 313 313 312 311 309 308 306
322 321 322 323 322 322 320 316 313 312 318 321 317 316 314 312 319 315 311 313 314 316 316 316 318 317 316 315 315 314 315 315 314 313 313 312 312 313 313 313 310 309 307 306 305
323 322 322 323 322 323 320 317 314 311 322 323 315 311 309 312 314 308 310 312 315 317 318 318 315 314 313 313 313 314 313 313 313 312 312 310 311 313 313 312 309 307 306 304 303
323 323 322 322 324 324 316 318 316 312 330 319 311 309 309 312 310 309 308 310 314 314 313 316 312 312 314 314 314 315 311 312 311 311 312 312 313 314 314 310 309 307 305 304 302
322 321 321 321 322 320 320 319 316 325 330 318 312 312 310 309 309 309 310 308 309 312 312 312 309 311 313 314 311 311 310 310 310 311 316 316 316 317 313 310 308 307 306 304 303
320 319 320 320 322 320 320 322 328 329 323 321 315 312 314 312 311 311 312 312 315 318 318 317 315 311 311 313 310 310 311 317 320 316 319 317 319 318 317 309 308 307 305 303 301
316 312 314 319 319 320 321 325 328 323 323 319 317 314 319 316 314 312 315 317 317 317 318 319 317 314 309 313 315 312 318 320 322 322 320 315 317 319 311 308 307 305 303 302 300
312 310 309 313 318 318 322 325 325 322 319 320 322 323 322 321 322 320 318 318 317 316 318 315 317 309 309 309 311 318 320 318 322 315 319 316 315 313 310 309 307 305 302 300 298
307 307 310 310 312 317 318 320 319 317 316 318 322 320 319 318 320 319 316 316 316 312 311 318 320 318 314 311 312 314 312 319 317 316 309 313 313 313 313 311 307 303 300 298 297
306 309 309 309 314 315 316 316 313 312 314 317 317 318 316 315 314 314 315 316 317 312 314 317 318 316 315 313 315 310 311 311 313 314 315 315 312 311 311 311 306 302 300 298 296
306 308 307 314 312 313 314 312 310 311 312 313 314 315 315 313 312 313 314 313 314 314 316 315 316 315 315 311 310 310 312 313 318 315 314 315 315 309 305 303 302 301 300 297 295
306 309 308 311 312 312 311 311 311 311 311 312 313 313 311 312 312 311 311 311 311 313 314 313 313 308 307 307 312 314 313 313 313 312 315 316 314 310 303 302 302 301 298 296 295
304 306 308 309 310 311 311 311 311 310 311 311 310 309 310 310 310 310 309 311 309 310 308 309 311 306 307 306 307 306 307 307 308 311 309 308 307 305 306 305 303 299 297 296 294
302 303 306 309 309 309 309 308 309 310 309 308 309 309 309 308 306 306 307 307 308 306 306 307 303 305 305 306 305 304 304 305 305 304 305 304 304 304 305 299 295 292 292 294 294
300 300 301 304 305 309 308 307 307 306 307 307 307 305 306 307 307 304 305 304 304 303 304 305 298 300 295 301 301 302 301 301 301 301 301 301 301 300 295 295 295 295 292 291 290
296 296 300 303 304 306 308 307 306 306 305 303 304 304 304 303 300 299 299 299 301 301 301 300 297 291 292 298 296 293 297 298 299 298 299 299 298 294 294 294 292 291 291 291 291
Wind_Speed
3 4 4 5 5 5 6 7 7 8 9 9 10 11 13 15 17 10 6 3 5 8 6 6 5 4 3 2 2 2 2 4 7 3 3 6 3 2 2 3 6 6 5 6 11
4 5 5 6 6 7 7 8 8 8 8 9 10 10 12 15 16 10 8 8 7 8 10 10 6 6 3 3 3 2 3 4 6 8 7 10 8 8 5 9 8 7 12 22 13
5 6 6 6 6 7 8 9 10 11 11 11 11 11 10 11 5 2 2 2 6 11 7 9 8 5 7 4 5 5 4 7 9 10 7 7 9 7 8 9 10 10 12 8 6
5 5 5 6 6 8 9 10 11 13 13 12 11 10 9 4 4 1 0 1 6 12 4 4 5 4 5 7 8 7 9 9 10 8 2 4 8 10 11 11 11 12 11 9 10
5 5 5 6 7 8 10 11 14 14 14 14 12 9 3 4 4 3 3 3 8 10 10 6 7 6 6 5 7 7 9 10 10 8 7 7 9 8 21 14 12 14 13 10 9
6 5 5 5 6 8 10 13 15 15 15 14 11 6 1 5 2 3 3 5 4 9 10 10 5 3 8 7 8 7 8 9 9 14 13 11 9 3 14 11 15 11 10 9 10
5 5 5 5 6 9 11 14 14 15 13 11 8 3 4 7 1 3 2 2 6 7 9 8 8 1 6 6 6 7 6 10 12 12 9 5 7 9 16 10 9 9 9 10 8
6 5 5 6 7 10 13 14 15 11 9 6 2 3 5 4 2 2 1 2 2 4 4 4 2 5 4 6 6 7 6 5 6 8 4 8 8 11 10 8 11 14 11 9 11
7 6 6 6 9 11 14 15 12 6 4 2 4 3 3 2 3 1 2 1 4 2 2 1 2 3 5 4 5 7 5 10 11 10 5 6 5 8 10 10 12 19 13 9 10
8 7 7 7 10 13 14 14 8 4 3 2 3 2 4 3 3 3 1 7 3 7 4 4 4 3 3 4 4 7 11 11 13 8 7 7 9 10 9 9 14 13 10 8 11
9 8 8 9 10 12 13 6 3 2 5 6 4 10 5 4 3 3 3 5 4 4 4 5 3 6 10 10 10 5 8 11 10 9 12 14 15 9 9 16 19 14 10 4 15
10 8 9 10 11 7 6 3 3 0 7 10 13 6 1 1 1 5 6 5 4 6 8 3 7 12 7 6 8 10 11 12 8 7 7 10 16 19 19 17 15 7 14 14 15
12 10 10 9 6 1 3 3 2 1 4 3 3 1 3 2 3 5 3 2 5 7 8 10 6 9 5 7 10 11 11 10 8 7 6 9 7 8 8 3 17 16 16 17 15
14 12 8 3 2 3 4 1 1 2 3 6 4 3 3 3 3 2 1 2 3 5 5 6 3 2 4 7 6 9 8 2 5 4 3 7 5 6 15 4 14 13 14 11 10
16 10 8 6 1 2 5 3 2 1 5 4 4 2 2 2 3 2 2 2 5 6 2 2 7 5 6 6 1 4 3 3 5 4 5 7 5 5 7 10 9 9 10 9 8
12 9 6 5 4 4 4 1 1 2 7 4 4 4 4 4 3 3 2 3 1 2 5 9 2 2 5 3 0 3 3 9 7 5 2 3 4 4 4 8 6 8 9 9 8
12 10 10 5 2 5 4 3 3 5 2 5 3 4 4 5 5 5 5 4 4 3 5 3 8 4 1 2 3 2 3 4 1 1 5 7 4 4 3 10 13 13 10 9 8
12 7 6 7 5 8 3 2 7 1 6 3 3 3 4 7 6 7 4 8 10 8 3 4 4 5 5 2 2 4 1 3 5 3 4 6 5 5 7 13 13 12 10 8 8
11 6 0 4 7 5 2 4 5 7 4 8 5 5 8 10 7 2 7 9 5 1 4 3 2 3 2 3 2 4 2 3 2 3 2 5 5 7 14 11 10 10 9 8 7
6 7 7 10 9 2 2 4 7 7 3 3 6 6 6 4 4 6 5 3 4 5 4 3 4 1 3 2 2 2 4 1 1 3 4 6 4 7 7 10 10 8 8 7 6
5 3 6 12 11 2 4 6 8 9 4 5 6 10 10 6 6 5 3 2 4 4 5 4 2 3 1 4 6 2 2 4 1 3 3 8 6 7 6 6 11 8 6 6 5
6 2 4 20 3 3 8 6 4 6 3 5 3 5 6 5 6 8 8 7 6 5 4 6 3 4 8 8 8 6 9 7 7 6 4 11 15 5 7 8 8 6 6 5 5
3 3 5 5 5 8 4 7 7 6 9 5 6 8 3 5 4 7 7 8 7 4 2 2 1 2 8 5 3 2 3 2 4 2 7 10 6 5 7 6 4 6 6 4 3
3 3 2 3 5 4 10 11 11 5 10 8 4 3 3 6 5 2 1 3 5 5 5 2 3 6 6 10 10 6 9 10 3 5 10 13 19 20 13 7 6 6 6 4 4
2 3 3 5 8 11 5 3 15 9 6 0 4 10 8 5 6 12 9 3 7 7 3 1 4 2 9 10 10 10 13 18 16 16 12 22 22 23 19 5 5 5 6 3 5
2 3 1 2 8 13 12 6 10 5 8 7 8 3 7 9 6 1 3 1 2 1 4 2 3 3 6 6 10 15 21 19 19 21 22 22 24 13 7 4 1 1 5 2 4
1 2 2 5 3 5 12 12 6 5 3 2 2 3 3 3 8 6 5 5 1 3 3 3 3 2 6 2 4 7 18 20 18 20 20 18 13 2 2 0 3 5 4 4 4
Wind_Direction
341 342 341 342 342 338 334 332 332 332 333 332 328 326 324 323 320 311 256 224 206 228 168 156 193 208 228 227 275 291 292 274 284 307 270 120 166 131 266 262 280 194 224 201 182
330 327 333 334 335 331 329 327 327 327 328 328 328 327 324 321 317 261 256 260 247 191 163 180 194 187 244 203 178 234 237 261 321 340 327 330 348 335 330 294 283 292 248 235 202
332 338 340 345 341 337 334 334 330 327 324 324 325 327 328 327 284 92 204 218 182 172 179 222 279 182 237 250 195 209 227 284 310 329 17 340 310 296 284 277 263 280 312 319 257
312 321 327 336 341 344 341 336 333 326 321 318 319 326 327 339 303 155 107 228 178 171 219 214 236 202 229 241 212 254 251 272 288 284 314 284 307 306 282 256 277 281 282 281 281
295 306 320 334 342 341 339 333 330 323 316 313 312 317 326 230 266 268 289 206 176 175 220 218 232 221 253 262 303 258 255 258 285 285 276 284 269 279 281 277 266 268 273 276 276
285 294 309 326 337 337 334 330 326 320 313 307 303 296 250 238 336 302 257 177 187 198 223 235 255 326 289 281 267 305 339 310 284 274 268 263 267 287 276 277 279 267 275 274 263
264 279 300 320 331 332 329 326 324 319 313 309 296 208 258 251 218 310 88 156 199 225 257 248 293 312 328 312 7 342 323 285 271 259 244 154 297 234 255 287 278 283 282 277 284
257 271 293 313 327 329 329 324 323 319 323 314 264 141 260 214 194 91 236 6 270 213 280 338 7 300 268 314 311 276 252 281 265 264 155 114 271 284 292 7 325 306 287 301 302
254 270 289 311 324 328 328 322 317 318 344 79 115 207 266 110 123 25 161 238 127 137 75 83 203 240 292 238 291 234 261 271 284 273 130 162 245 275 298 293 283 274 281 285 284
254 266 284 302 320 328 327 318 302 308 325 349 270 252 194 138 137 123 141 153 156 145 160 194 214 221 232 227 241 280 297 311 310 315 307 261 248 252 266 284 271 283 292 299 67
250 265 281 295 314 332 336 325 237 204 224 280 286 288 312 106 136 124 151 170 176 217 208 194 212 205 229 240 264 314 309 298 298 307 299 285 289 308 285 272 287 291 292 25 71
255 262 275 295 321 337 328 356 63 168 301 263 257 258 6 69 260 142 157 197 192 214 208 129 227 238 266 326 310 297 286 284 279 284 325 320 300 290 277 269 265 294 61 66 61
252 267 271 289 310 84 71 94 76 30 255 297 37 307 65 188 263 122 213 206 198 232 232 216 262 330 311 296 275 272 271 291 313 343 303 300 282 269 281 17 74 65 71 62 56
242 247 253 248 298 165 121 160 6 80 270 188 167 123 158 262 184 81 274 294 202 252 238 239 225 196 248 260 253 277 261 320 301 335 235 45 282 327 281 77 81 75 68 56 57
227 220 219 213 30 238 158 170 333 124 295 109 127 115 104 265 126 111 47 203 251 189 208 199 169 185 213 230 272 262 10 280 254 244 306 233 249 245 235 107 103 91 86 75 67
194 204 213 206 197 197 182 178 63 201 242 132 126 162 185 181 141 130 196 187 18 307 214 261 107 280 230 230 279 11 296 269 257 218 284 238 212 304 92 156 123 110 96 91 74
193 199 187 176 100 184 171 208 207 228 149 151 153 178 232 163 166 190 174 188 219 238 219 266 226 203 202 249 126 84 329 308 276 119 212 51 3 258 347 171 153 132 109 92 79
162 154 164 157 166 151 192 151 210 253 256 102 110 188 227 148 222 191 241 236 227 242 261 238 291 124 161 210 10 174 339 191 265 320 308 2 236 246 84 81 91 98 100 80 68
161 144 142 198 179 191 203 213 195 208 296 269 169 238 228 228 216 228 228 262 276 78 236 322 203 163 149 66 62 141 191 75 39 234 211 232 276 289 116 105 110 107 94 90 77
156 171 176 184 165 166 244 234 232 218 18 320 244 251 271 253 177 201 223 120 105 34 344 30 307 110 82 113 213 188 111 43 175 260 240 261 281 265 94 138 124 108 102 98 94
182 178 174 164 139 190 219 222 251 259 205 226 239 254 272 288 299 282 261 93 145 111 50 110 205 240 50 180 191 156 195 210 253 203 252 275 257 96 86 109 129 128 123 125 131
164 192 158 152 159 203 214 187 232 215 269 256 281 272 259 281 282 260 240 251 69 120 169 202 188 237 241 288 310 275 266 266 247 254 243 257 258 26 109 119 124 139 144 127 79
176 117 191 192 202 214 214 216 226 198 207 203 231 222 259 244 238 240 246 72 62 66 38 41 241 320 322 288 70 88 42 360 305 255 247 267 267 53 98 124 157 180 155 146 147
140 158 156 220 270 255 212 219 212 196 240 236 232 273 257 246 259 276 280 126 108 98 99 55 224 180 230 262 324 301 291 274 255 277 286 274 287 290 289 313 284 172 157 167 183
182 215 193 191 217 229 274 220 217 200 214 153 247 232 219 236 256 248 252 342 117 135 118 131 252 267 278 290 305 295 277 274 273 266 257 272 280 279 291 310 73 100 92 131 214
201 173 219 329 179 201 217 228 225 235 161 201 230 231 232 235 188 248 84 55 240 84 139 156 254 19 286 276 270 269 266 270 270 268 267 267 269 294 33 71 20 99 128 58 20
189 349 295 159 169 178 212 215 208 203 222 70 246 258 196 12 63 63 24 358 349 159 180 205 163 138 254 34 345 299 247 249 256 260 265 273 284 350 305 264 71 44 3 313 300